This is the latest recevied weather packets stored in our database for station/object AA8FM-13. If no packets are shown the sender has not sent any weather packets the latest 1 day(s).
| Time | Temp. | Humidity | Pressure | Rain* | Wind** | Luminosity | Snow |
|---|---|---|---|---|---|---|---|
| 1778026308 | 20.56° C | 54% | 1006.2 hPa | 0 mm | 0 m/s | 2 W/m² | - |
| 1778026005 | 21.11° C | 51% | 1006.2 hPa | 0 mm | 0 m/s | 3 W/m² | - |
| 1778025702 | 21.11° C | 50% | 1006.2 hPa | 0 mm | 0 m/s | 4 W/m² | - |
| 1778025400 | 21.11° C | 50% | 1006.1 hPa | 0 mm | 0 m/s | 5 W/m² | - |
| 1778025097 | 21.67° C | 49% | 1006 hPa | 0 mm | 0 m/s | 8 W/m² | - |
| 1778024794 | 21.67° C | 48% | 1006 hPa | 0 mm | 0 m/s | 12 W/m² | - |
| 1778024490 | 21.67° C | 48% | 1005.9 hPa | 0 mm | 0.45 m/s, 223° | 18 W/m² | - |
| 1778024188 | 21.67° C | 49% | 1006.2 hPa | 0 mm | 0.45 m/s, 343° | 20 W/m² | - |
| 1778023885 | 21.67° C | 49% | 1005.9 hPa | 0 mm | 0.45 m/s, 314° | 18 W/m² | - |
| 1778023583 | 21.67° C | 48% | 1006.2 hPa | 0 mm | 0 m/s | 20 W/m² | - |
| 1778023280 | 21.67° C | 48% | 1006.3 hPa | 0 mm | 0 m/s | 26 W/m² | - |
| 1778022977 | 21.67° C | 48% | 1006.2 hPa | 0 mm | 0 m/s | 31 W/m² | - |
| 1778022676 | 21.67° C | 48% | 1006.2 hPa | 0 mm | 0 m/s | 31 W/m² | - |
| 1778022373 | 21.67° C | 47% | 1005.9 hPa | 0 mm | 0 m/s | 41 W/m² | - |
| 1778022069 | 22.22° C | 47% | 1006 hPa | 0 mm | 0 m/s | 42 W/m² | - |
| 1778021766 | 22.78° C | 48% | 1006.1 hPa | 0 mm | 0 m/s | 39 W/m² | - |
| 1778021462 | 23.33° C | 46% | 1006 hPa | 0 mm | 0 m/s | 38 W/m² | - |
| 1778021159 | 23.89° C | 44% | 1006.1 hPa | 0 mm | 0.45 m/s, 288° | 88 W/m² | - |
| 1778020856 | 23.33° C | 47% | 1006.1 hPa | 0 mm | 0 m/s | 164 W/m² | - |
| 1778020554 | 22.78° C | 49% | 1006.1 hPa | 0 mm | 0 m/s | 147 W/m² | - |
| 1778020249 | 22.78° C | 47% | 1006.1 hPa | 0 mm | 0 m/s | 78 W/m² | - |
| 1778019946 | 22.78° C | 46% | 1006.2 hPa | 0 mm | 0.45 m/s, 138° | 74 W/m² | - |
| 1778019642 | 22.78° C | 47% | 1006.3 hPa | 0 mm | 0.45 m/s, 186° | 100 W/m² | - |
| 1778019339 | 22.78° C | 46% | 1006.3 hPa | 0 mm | 0 m/s | 112 W/m² | - |
| 1778019036 | 22.78° C | 46% | 1006.3 hPa | 0 mm | 0 m/s | 87 W/m² | - |
* Rain latest hour (hover to see other rain measurements)
** Current wind speed in m/s (hover to see current wind gust speed)